This demonstration page uses our WeatherBlox Daily Observations layout. Learn more.

Hourly Observations for April 24, 2018

Temp ( °F °C ) Dew Point ( °F °C ) Humidity (%) Winds ( mph kmh ) Pressure ( in mb ) Visibility ( mi km ) Precip ( " mm )
12:15 am 00:15 Clear 48 9.1 40 4.3 72 72 Calm 30.15 1021 10 16.0934 0 0
12:35 am 00:35 Clear 48 9 39 4 71 71 SE 3 6 30.15 1021 10 16.0934 0 0
12:55 am 00:55 Clear 47 8.3 39 3.9 74 74 Calm 30.15 1021 10 16.0934 0 0
1:15 am 01:15 Clear 46 7.7 39 3.8 77 77 Calm 30.15 1021 10 16.0934 0 0
1:35 am 01:35 Clear 45 7.2 39 3.7 79 79 Calm 30.15 1021 10 16.0934 0 0
1:55 am 01:55 Partly Cloudy 44 6.6 39 3.7 82 82 Calm 30.18 1022 10 16.0934 0 0
2:15 am 02:15 Mostly Cloudy 44 6.9 39 4.1 83 83 Calm 30.18 1022 10 16.0934 0 0
2:35 am 02:35 Partly Cloudy 45 7.2 39 3.7 79 79 Calm 30.15 1021 10 16.0934 0 0
2:55 am 02:55 Clear 46 7.6 39 4.1 79 79 Calm 30.15 1021 10 16.0934 0 0
3:15 am 03:15 Clear 45 7.2 39 4.1 81 81 Calm 30.15 1021 10 16.0934 0 0
3:35 am 03:35 Clear 45 7.2 39 4.1 81 81 Calm 30.15 1021 10 16.0934 0 0
3:55 am 03:55 Clear 45 7.4 40 4.2 80 80 Calm 30.15 1021 10 16.0934 0 0
4:15 am 04:15 Clear 46 7.7 40 4.4 80 80 Calm 30.15 1021 10 16.0934 0 0
4:35 am 04:35 Partly Cloudy 45 7.1 39 4 81 81 E 3 6 30.15 1021 10 16.0934 0 0
4:55 am 04:55 Mostly Cloudy 45 7.4 40 4.2 80 80 Calm 30.15 1021 10 16.0934 0 0
5:15 am 05:15 Cloudy 44 6.9 40 4.5 85 85 NNW 6 9 30.18 1022 10 16.0934 0 0
5:35 am 05:35 Cloudy 47 8.2 41 4.8 79 79 NW 6 9 30.15 1021 10 16.0934 0 0
5:55 am 05:55 Mostly Cloudy 47 8.5 41 5 79 79 Calm 30.15 1021 10 16.0934 0 0
6:15 am 06:15 Cloudy 46 7.6 41 5 84 84 Calm 30.15 1021 10 16.0934 0 0
6:35 am 06:35 Cloudy 47 8.4 42 5.6 83 83 NW 7 11 30.15 1021 10 16.0934 0 0
6:55 am 06:55 Cloudy 47 8.5 43 6 84 84 WNW 5 7 30.18 1022 10 16.0934 0 0
7:15 am 07:15 Cloudy with Light Rain 48 9 44 6.5 85 85 NW 8 13 30.18 1022 10 16.0934 0 0
7:35 am 07:35 Cloudy 50 9.9 46 7.8 87 87 NNW 9 15 30.21 1023 10 16.0934 0 0
7:55 am 07:55 Cloudy 51 10.8 48 9 89 89 NNW 16 26 30.21 1023 10 16.0934 0 0
8:15 am 08:15 Cloudy 49 9.7 46 7.5 86 86 NNW 15 24 30.21 1023 10 16.0934 0 0
8:35 am 08:35 Cloudy 48 8.9 43 6.3 84 84 N 14 22 30.21 1023 10 16.0934 0 0
8:55 am 08:55 Cloudy 47 8.5 43 6 84 84 N 14 22 30.24 1024 10 16.0934 0 0
9:15 am 09:15 Cloudy with Light Rain 46 7.7 43 6.3 91 91 NNW 13 20 30.27 1025 10 16.0934 0 0
9:35 am 09:35 Cloudy with Light Rain 45 7.1 43 6.2 94 94 NNW 20 31 30.27 1025 10 16.0934 0 0
9:55 am 09:55 Cloudy with Light Rain 44 6.9 43 6.1 95 95 NNW 13 20 30.27 1025 10 16.0934 0.01 0.254
10:15 am 10:15 Cloudy with Rain 43 6.3 42 5.6 95 95 NNW 16 26 30.27 1025 7 11.26538 0.02 0.508
10:35 am 10:35 Cloudy with Rain 43 6.1 42 5.6 97 97 NNW 17 28 30.3 1026 5 8.0467 0.06 1.524
10:55 am 10:55 Cloudy with Light Rain 43 6.2 42 5.8 97 97 NW 18 30 30.3 1026 7 11.26538 0.09 2.286
11:15 am 11:15 Cloudy with Rain 43 6.1 42 5.7 97 97 NW 20 31 30.33 1027 4 6.43736 0.05 1.27
11:35 am 11:35 Cloudy with Rain 42 5.8 42 5.3 97 97 NW 18 30 30.33 1027 4 6.43736 0.12 3.048
11:55 am 11:55 Cloudy with Rain 42 5.8 42 5.3 97 97 NW 16 26 30.33 1027 7 11.26538 0.18 4.572
12:15 pm 12:15 Cloudy with Rain 42 5.7 42 5.3 97 97 NW 15 24 30.33 1027 5 8.0467 0.06 1.524
12:35 pm 12:35 Cloudy with Rain 42 5.5 42 5.3 99 99 NNW 12 19 30.33 1027 3 4.82802 0.16 4.064
12:55 pm 12:55 Cloudy with Rain 42 5.7 42 5.5 99 99 NNW 14 22 30.33 1027 7 11.26538 0.21 5.334
1:15 pm 13:15 Cloudy with Rain 42 5.7 42 5.3 97 97 NNW 12 19 30.3 1026 7 11.26538 0.03 0.762
1:35 pm 13:35 Cloudy with Light Rain 42 5.8 42 5.3 97 97 NNW 13 20 30.3 1026 10 16.0934 0.05 1.27
1:55 pm 13:55 Cloudy with Light Rain 42 5.8 42 5.3 97 97 NNW 13 20 30.3 1026 7 11.26538 0.08 2.032
2:15 pm 14:15 Cloudy with Light Rain 43 6 42 5.6 97 97 NNW 14 22 30.3 1026 10 16.0934 0.01 0.254
2:35 pm 14:35 Cloudy with Light Rain 43 6.2 42 5.6 96 96 NNW 15 24 30.3 1026 10 16.0934 0.03 0.762
2:55 pm 14:55 Cloudy with Light Rain 44 6.5 42 5.7 95 95 NNW 15 24 30.3 1026 10 16.0934 0.03 0.762
3:15 pm 15:15 Cloudy 44 6.8 42 5.6 92 92 NNW 16 26 30.3 1026 10 16.0934 0 0
3:35 pm 15:35 Cloudy 44 6.8 42 5.5 92 92 NNW 13 20 30.3 1026 10 16.0934 0 0
3:55 pm 15:55 Cloudy with Light Drizzle 44 6.6 41 5.1 90 90 NNW 17 28 30.3 1026 10 16.0934 0 0
4:15 pm 16:15 Cloudy 43 6.1 41 4.9 92 92 NNW 14 22 30.3 1026 10 16.0934 0 0
4:35 pm 16:35 Cloudy 43 6.2 41 4.8 91 91 NNW 18 30 30.3 1026 10 16.0934 0 0
4:55 pm 16:55 Cloudy 44 6.5 41 5 90 90 NNW 16 26 30.3 1026 10 16.0934 0 0
5:15 pm 17:15 Cloudy 43 6.1 40 4.7 91 91 NNW 20 31 30.3 1026 10 16.0934 0 0
5:35 pm 17:35 Cloudy 43 6 40 4.6 91 91 NNW 21 33 30.3 1026 10 16.0934 0 0
5:55 pm 17:55 Cloudy 43 6 40 4.6 91 91 NNW 16 26 30.3 1026 10 16.0934 0 0
6:15 pm 18:15 Cloudy 43 6 40 4.7 91 91 NNW 18 30 30.3 1026 10 16.0934 0 0
6:35 pm 18:35 Cloudy 43 6 41 4.8 92 92 NNW 15 24 30.3 1026 10 16.0934 0 0
6:55 pm 18:55 Cloudy 42 5.8 40 4.5 91 91 N 22 35 30.3 1026 10 16.0934 0 0
7:15 pm 19:15 Cloudy 42 5.8 40 4.4 91 91 NNW 22 35 30.3 1026 10 16.0934 0 0
7:35 pm 19:35 Cloudy 42 5.8 40 4.5 91 91 N 21 33 30.3 1026 10 16.0934 0 0
7:55 pm 19:55 Cloudy 41 5.2 39 4.1 93 93 NNW 16 26 30.3 1026 10 16.0934 0 0
8:15 pm 20:15 Cloudy 41 5 39 3.8 92 92 NNW 18 30 30.3 1026 10 16.0934 0 0
8:35 pm 20:35 Cloudy 40 4.7 38 3.2 90 90 N 17 28 30.33 1027 10 16.0934 0 0
8:55 pm 20:55 Cloudy 40 4.6 38 3.2 91 91 NNW 20 31 30.36 1028 10 16.0934 0 0
9:15 pm 21:15 Cloudy 40 4.5 38 3.1 91 91 N 22 35 30.36 1028 10 16.0934 0 0
9:35 pm 21:35 Cloudy 40 4.3 37 3 91 91 N 17 28 30.36 1028 10 16.0934 0 0
9:55 pm 21:55 Cloudy 40 4.4 38 3.1 91 91 N 17 28 30.36 1028 10 16.0934 0 0
10:15 pm 22:15 Cloudy 40 4.3 38 3.1 92 92 N 16 26 30.36 1028 10 16.0934 0 0
10:35 pm 22:35 Cloudy 40 4.3 38 3.2 93 93 N 15 24 30.39 1029 10 16.0934 0 0
10:55 pm 22:55 Cloudy 40 4.3 38 3.3 93 93 N 15 24 30.39 1029 10 16.0934 0 0
11:15 pm 23:15 Cloudy 40 4.3 38 3.3 93 93 NNW 16 26 30.39 1029 10 16.0934 0 0
11:35 pm 23:35 Cloudy 40 4.2 38 3.4 95 95 NNW 13 20 30.39 1029 10 16.0934 0 0
11:55 pm 23:55 Cloudy 39 4 38 3.2 95 95 NNW 15 24 30.39 1029 10 16.0934 0 0

Powered by AerisWeather